Marshalltown, IA

4:04 PM CST on November 11, 2019 (GMT -0600)
Marshalltown Municipal

Weather History for KMIW - September, 2019

Change the Weather History Date:

Saturday, September 14, 2019

  Actual Average Record
Temperature  
Mean Temperature 61 °F 63 °F  
Max Temperature 70 °F 75 °F 89 °F (2017)
Min Temperature 51 °F 51 °F 33 °F (1996)
Degree Days  
Heating Degree Days 4 4  
Month to date heating degree days 16 34  
Since 1 July heating degree days 26 55  
Cooling Degree Days 0 2  
Month to date cooling degree days 48 42  
Year to date cooling degree days 648 698  
Growing Degree Days 10 (Base 50)    
Moisture  
Dew Point 60 °F    
Average Humidity 83    
Maximum Humidity 100    
Minimum Humidity 66    
Precipitation  
Precipitation 0.73 in 0.11 in 0.73 in (2019)
Month to date precipitation 2.72 1.61  
Sea Level Pressure  
Sea Level Pressure 30.07 in    
Wind  
Wind Speed 8 mph (SSE)    
Max Wind Speed 26 mph    
Max Gust Speed 38 mph    
Visibility 9 miles    
Events Rain , Thunderstorm    
T = Trace of Precipitation, MM = Missing Value Source: NWS Daily Summary

Daily Weather History Graph

Daily Weather History Graph

Search for Another Location

Airport or City:

Astronomy

Sep. 14, 2019 Rise Set
Actual Time 6:50 AM CDT 7:23 PM CDT
Civil Twilight 6:22 AM CDT 7:51 PM CDT
Nautical Twilight 5:49 AM CDT 8:24 PM CDT
Astronomical Twilight 5:14 AM CDT 8:58 PM CDT
Moon 8:04 PM CDT (9/14) 7:03 AM CDT (9/14)
Length of Visible Light 13h 29m
Length of Day
12h 32m
Full, 100% of the Moon is Illuminated
Sep 14
Full
Sep 21
Last Quarter
Sep 28
New
Oct 5
First Quarter
Oct 13
Full

Hourly Weather History & Observations

Time (CDT) Temp. Dew Point Humidity Pressure Visibility Wind Dir Wind Speed Gust Speed Precip Events Conditions
12:53 AM 53.1 °F 53.1 °F 100% 30.15 in 10.0 mi SE 3.5 mph - N/A   Clear
1:53 AM 52.0 °F 52.0 °F 100% 30.15 in 10.0 mi East 3.5 mph - N/A   Clear
2:53 AM 51.1 °F 51.1 °F 100% 30.15 in 10.0 mi ESE 4.6 mph - N/A   Clear
3:53 AM 52.0 °F 52.0 °F 100% 30.14 in 10.0 mi SE 3.5 mph - N/A   Clear
4:53 AM 53.1 °F 53.1 °F 100% 30.14 in 10.0 mi SE 3.5 mph - N/A   Clear
5:53 AM 52.0 °F 52.0 °F 100% 30.13 in 10.0 mi East 3.5 mph - N/A   Clear
6:53 AM 53.1 °F 53.1 °F 100% 30.14 in 10.0 mi South 6.9 mph - N/A   Scattered Clouds
7:53 AM 59.0 °F 59.0 °F 100% 30.15 in 10.0 mi South 4.6 mph - N/A   Clear
8:53 AM 63.0 °F 61.0 °F 93% 30.16 in 10.0 mi South 5.8 mph - N/A   Clear
9:53 AM 64.0 °F 62.1 °F 93% 30.17 in 10.0 mi South 4.6 mph - N/A   Partly Cloudy
10:53 AM 68.0 °F 62.1 °F 81% 30.17 in 10.0 mi SSW 5.8 mph - N/A   Clear
11:53 AM 66.9 °F 62.1 °F 84% 30.17 in 10.0 mi SSW 8.1 mph - N/A   Partly Cloudy
12:53 PM 66.0 °F 64.0 °F 93% 30.17 in 10.0 mi South 9.2 mph - 0.01 in Rain Light Rain
1:53 PM 68.0 °F 64.0 °F 87% 30.07 in 10.0 mi SSE 12.7 mph - 0.02 in   Partly Cloudy
2:53 PM 70.0 °F 62.1 °F 76% 30.02 in 10.0 mi South 16.1 mph 24.2 mph N/A   Clear
3:53 PM 69.1 °F 61.0 °F 75% 30.01 in 10.0 mi SSW 11.5 mph - N/A   Clear
4:53 PM 69.1 °F 57.9 °F 68% 29.99 in 10.0 mi Calm Calm - N/A   Mostly Cloudy
5:15 PM 69.1 °F 57.0 °F 65% 29.99 in 10.0 mi SE 4.6 mph - N/A Thunderstorm Mostly Cloudy
5:37 PM 66.9 °F 60.1 °F 79% 30.05 in 10.0 mi NW 10.4 mph 34.5 mph 0.01 in Rain , Thunderstorm Light Thunderstorms and Rain
5:53 PM 66.9 °F 60.1 °F 79% 30.06 in 1.5 mi WNW 17.3 mph 38.0 mph 0.15 in Rain , Thunderstorm Heavy Thunderstorms and Rain
6:03 PM 63.0 °F 61.0 °F 93% 30.07 in 0.8 mi NNW 15.0 mph 33.4 mph 0.39 in Rain , Thunderstorm Heavy Thunderstorms and Rain
6:14 PM 62.1 °F 61.0 °F 96% 30.02 in 2.0 mi SE 9.2 mph 26.5 mph 0.53 in Rain , Thunderstorm Light Thunderstorms and Rain
6:21 PM 64.0 °F 60.1 °F 87% 30.01 in 10.0 mi SE 11.5 mph - 0.53 in Rain , Thunderstorm Light Thunderstorms and Rain
6:25 PM 64.0 °F 60.1 °F 87% 30.01 in 10.0 mi South 9.2 mph - 0.53 in Thunderstorm Mostly Cloudy
6:53 PM 66.0 °F 63.0 °F 90% 29.99 in 9.0 mi SSE 16.1 mph - 0.54 in Rain , Thunderstorm Light Thunderstorms and Rain
7:07 PM 68.0 °F 63.0 °F 84% 30.00 in 10.0 mi SSE 10.4 mph - 0.00 in Thunderstorm Mostly Cloudy
7:17 PM 68.0 °F 64.0 °F 87% 30.01 in 10.0 mi SE 5.8 mph - 0.00 in   Mostly Cloudy
7:53 PM 66.0 °F 64.0 °F 93% 30.02 in 10.0 mi ESE 6.9 mph - 0.00 in   Scattered Clouds
8:53 PM 66.9 °F 64.9 °F 93% 30.02 in 10.0 mi SE 8.1 mph - N/A   Overcast
9:53 PM 69.1 °F 64.0 °F 84% 30.01 in 10.0 mi SSE 13.8 mph - N/A   Overcast
10:53 PM 68.0 °F 64.0 °F 87% 30.00 in 10.0 mi SSE 10.4 mph - N/A   Mostly Cloudy
11:53 PM 68.0 °F 64.0 °F 87% 29.98 in 10.0 mi SSE 9.2 mph - 0.01 in   Mostly Cloudy